Ashtabula, OH

6:48 AM EDT on October 23, 2017 (GMT -0400)
Ashtabula County

Weather History for KHZY - February, 2013

Change the Weather History Date:

Friday, February 8, 2013

  Actual Average (KGKJ) Record (KGKJ)
Temperature  
Mean Temperature 28 °F -  
Max Temperature 36 °F 31 °F 51 °F (2001)
Min Temperature 19 °F 12 °F -11 °F (1977)
Degree Days  
Heating Degree Days 38    
Moisture  
Dew Point 22 °F    
Average Humidity 79    
Maximum Humidity 89    
Minimum Humidity 64    
Precipitation  
Precipitation 0.21 in - - ()
Sea Level Pressure  
Sea Level Pressure 29.91 in    
Wind  
Wind Speed 13 mph (WNW)    
Max Wind Speed 21 mph    
Max Gust Speed 31 mph    
Visibility 5 miles    
Events Rain , Snow    
Averages and records for this station are not official NWS values.
T = Trace of Precipitation, MM = Missing Value Source: NWS Daily Summary

Daily Weather History Graph

Daily Weather History Graph

Search for Another Location

Airport or City:

Trip Planner

Search our weather history database for the weather conditions in past years. The results will help you decide how hot, cold, wet, or windy it might be!

Date:

Astronomy

Feb. 08, 2013 Rise Set
Actual Time 7:27 AM EST 5:47 PM EST
Civil Twilight 6:58 AM EST 6:16 PM EST
Nautical Twilight 6:25 AM EST 6:49 PM EST
Astronomical Twilight 5:52 AM EST 7:21 PM EST
Moon 5:55 AM EST (2/8) 4:18 PM EST (2/8)
Length of Visible Light 11h 18m
Length of Day
10h 20m
Waning Crescent, 3% of the Moon is Illuminated
Feb 8
Waning Crescent
Feb 10
New
Feb 17
First Quarter
Feb 25
Full
Mar 4
Last Quarter

Hourly Weather History & Observations

Time (EST) Temp. Windchill Dew Point Humidity Pressure Visibility Wind Dir Wind Speed Gust Speed Precip Events Conditions
12:53 AM 35.1 °F 26.9 °F 24.1 °F 64% 29.91 in 10.0 mi SSE 11.5 mph 20.7 mph N/A   Mostly Cloudy
1:53 AM 35.1 °F 25.2 °F 24.1 °F 64% 29.87 in 10.0 mi SSE 16.1 mph 21.9 mph N/A   Overcast
2:53 AM 36.0 °F 26.7 °F 25.0 °F 64% 29.83 in 10.0 mi SSE 15.0 mph 24.2 mph N/A   Overcast
3:53 AM 36.0 °F 31.1 °F 26.1 °F 67% 29.84 in 10.0 mi SE 5.8 mph - N/A   Overcast
4:53 AM 35.1 °F 28.6 °F 27.0 °F 72% 29.82 in 8.0 mi SE 8.1 mph - 0.00 in Rain Light Rain
5:53 AM 36.0 °F 28.0 °F 27.0 °F 70% 29.78 in 9.0 mi SSE 11.5 mph - 0.00 in   Overcast
6:53 AM 35.1 °F 26.4 °F 28.0 °F 76% 29.77 in 7.0 mi SSE 12.7 mph - 0.02 in Rain Light Rain
7:19 AM 35.6 °F 28.0 °F 28.4 °F 75% 29.75 in 7.0 mi South 10.4 mph - 0.02 in Snow Light Snow
7:53 AM 34.0 °F 25.5 °F 28.9 °F 82% 29.78 in 2.0 mi South 11.5 mph - 0.06 in Snow Light Snow
8:12 AM 33.8 °F 24.8 °F 30.2 °F 87% 29.76 in 1.8 mi South 12.7 mph 18.4 mph 0.03 in Snow Light Snow
8:20 AM 33.8 °F 25.8 °F 30.2 °F 87% 29.76 in 2.0 mi South 10.4 mph - 0.04 in Snow Light Snow
8:26 AM 33.8 °F 25.3 °F 30.2 °F 87% 29.76 in 1.5 mi South 11.5 mph - 0.05 in Snow Light Snow
8:53 AM 33.1 °F 23.9 °F 30.0 °F 89% 29.78 in 1.8 mi South 12.7 mph - 0.09 in Snow Light Snow
9:20 AM 33.8 °F 25.3 °F 30.2 °F 87% 29.75 in 2.0 mi South 11.5 mph - 0.02 in Snow Light Snow
9:50 AM 33.8 °F 25.3 °F 30.2 °F 87% 29.75 in 3.0 mi South 11.5 mph - 0.02 in   Overcast
9:53 AM 34.0 °F 25.5 °F 30.0 °F 85% 29.77 in 3.0 mi South 11.5 mph - 0.02 in   Overcast
10:37 AM 35.6 °F 27.1 °F 30.2 °F 81% 29.76 in 9.0 mi WSW 12.7 mph - 0.00 in   Overcast
10:50 AM 35.6 °F 25.5 °F 30.2 °F 81% 29.77 in 10.0 mi SW 17.3 mph 23.0 mph 0.00 in   Overcast
10:53 AM 35.1 °F 24.8 °F 30.0 °F 82% 29.79 in 10.0 mi WSW 17.3 mph 23.0 mph 0.00 in   Overcast
11:53 AM 32.0 °F 20.1 °F 28.0 °F 85% 29.81 in 2.5 mi West 19.6 mph 25.3 mph 0.00 in Snow Light Snow
12:09 PM 30.2 °F 17.8 °F 26.6 °F 86% 29.79 in 1.5 mi West 19.6 mph 26.5 mph 0.00 in Snow Light Snow
12:53 PM 28.0 °F 14.6 °F 23.0 °F 81% 29.84 in 1.2 mi WNW 20.7 mph 31.1 mph 0.00 in Snow Light Snow
1:30 PM 26.6 °F 13.8 °F 21.2 °F 80% 29.85 in 1.0 mi NW 17.3 mph 24.2 mph 0.00 in Snow Light Snow
1:40 PM 26.6 °F 13.4 °F 21.2 °F 80% 29.86 in 0.8 mi NW 18.4 mph 27.6 mph 0.01 in Snow Light Snow
1:53 PM 26.1 °F 16.2 °F 21.9 °F 84% 29.90 in 0.8 mi NW 10.4 mph - 0.01 in Snow Light Snow
2:01 PM 24.8 °F 12.4 °F 21.2 °F 86% 29.88 in 1.0 mi NW 15.0 mph 25.3 mph 0.00 in Snow Light Snow
2:09 PM 24.8 °F 13.4 °F 19.4 °F 80% 29.88 in 1.5 mi NW 12.7 mph 23.0 mph 0.00 in Snow Light Snow
2:27 PM 24.8 °F 10.7 °F 19.4 °F 80% 29.90 in 0.8 mi NW 19.6 mph 27.6 mph 0.00 in Snow Light Snow
2:53 PM 23.0 °F 10.1 °F 18.0 °F 81% 29.95 in 0.8 mi NW 15.0 mph 26.5 mph 0.00 in Snow Light Snow
3:45 PM 21.2 °F 8.3 °F 17.6 °F 86% 29.96 in 1.0 mi NW 13.8 mph 24.2 mph 0.01 in Snow Light Snow
3:53 PM 21.9 °F 9.8 °F 17.1 °F 82% 29.99 in 1.0 mi NW 12.7 mph 19.6 mph 0.01 in Snow Light Snow
4:02 PM 21.2 °F 8.3 °F 17.6 °F 86% 29.97 in 1.5 mi NW 13.8 mph 24.2 mph 0.00 in Snow Light Snow
4:08 PM 21.2 °F 8.9 °F 15.8 °F 80% 29.97 in 3.0 mi NW 12.7 mph 24.2 mph 0.00 in Snow Light Snow
4:24 PM 21.2 °F 8.3 °F 15.8 °F 80% 29.98 in 2.5 mi NNW 13.8 mph 19.6 mph 0.00 in Snow Light Snow
4:43 PM 21.2 °F 8.3 °F 15.8 °F 80% 29.99 in 1.5 mi NNW 13.8 mph 18.4 mph 0.00 in Snow Light Snow
4:53 PM 21.9 °F 8.2 °F 17.1 °F 82% 30.02 in 1.2 mi NNW 16.1 mph 19.6 mph 0.00 in Snow Light Snow
5:13 PM 21.2 °F 7.3 °F 15.8 °F 80% 30.01 in 3.0 mi NW 16.1 mph 21.9 mph 0.00 in Snow Light Snow
5:53 PM 23.0 °F 11.1 °F 16.0 °F 74% 30.06 in 7.0 mi NNW 12.7 mph 21.9 mph 0.00 in   Overcast
6:29 PM 23.0 °F 10.6 °F 15.8 °F 74% 30.05 in 9.0 mi NNW 13.8 mph 23.0 mph N/A   Overcast
6:53 PM 23.0 °F 11.1 °F 17.1 °F 78% 30.10 in 10.0 mi NNW 12.7 mph 20.7 mph N/A   Overcast
7:53 PM 23.0 °F 8.7 °F 16.0 °F 74% 30.13 in 9.0 mi NNW 18.4 mph 24.2 mph 0.00 in Snow Light Snow
8:53 PM 21.9 °F 8.2 °F 15.1 °F 75% 30.16 in 9.0 mi NNW 16.1 mph 25.3 mph 0.00 in   Overcast
9:17 PM 21.2 °F 7.8 °F 15.8 °F 80% 30.14 in 10.0 mi NNW 15.0 mph 25.3 mph N/A   Overcast
9:53 PM 21.0 °F 9.9 °F 14.0 °F 74% 30.19 in 10.0 mi NNW 10.4 mph 24.2 mph N/A   Overcast
10:53 PM 19.9 °F 6.7 °F 12.9 °F 74% 30.22 in 10.0 mi North 13.8 mph 21.9 mph N/A   Overcast
11:53 PM 19.9 °F 9.3 °F 12.9 °F 74% 30.25 in 10.0 mi North 9.2 mph 20.7 mph N/A   Overcast